• Join FlightAware (Why Join?)
  • Login
  • US Flag GB Flag 
16:39 EDT


 

Airport Tracker/Info


-or-


 

Live Flight TrackerFlight Track Log ✈ ASQ5740 ✈ 24-Nov-2013 ✈ KGSP - KIAD

Flight Track Log - Related Links

Times and Time Zones

All times are in EST time to prevent confusion due to time zone crossing. See the ASQ5740 flight status page for this flight to view local times or setup timezone preferences in your user account.

Time Position Orientation Groundspeed Altitude Reporting Facility
EST Latitude Longitude Course Direction KTS MPH feet Rate Location/Type
14:57 35.0067 -82.1394 73° East 264 304 6,300  Level Atlanta Center
14:58 35.0642 -82.0847 38° Northeast 264 304 8,500 2,100 Climbing Atlanta Center
14:59 35.2811 -81.7961 71° East  Level Estimated
14:59 35.1239 -82.0225 40° Northeast 269 310 10,600  Level Atlanta Center
15:00 35.3740 -81.7402 26° Northeast  Level FlightAware Approximate
15:00 35.1831 -81.9525 44° Northeast 280 322 12,600  Level Atlanta Center
15:01 35.4505 -81.6544 73° East  Level Estimated
15:01 35.2528 -81.8769 41° Northeast 306 352 13,500  Level Atlanta Center
15:02 35.3047 -81.7586 62° Northeast 362 417 14,500 960 Climbing Atlanta Center
15:03 35.3589 -81.6347 62° Northeast 375 432 15,500 960 Climbing Atlanta Center
15:04 35.4125 -81.5083 62° Northeast 400 460 16,500 1,020 Climbing Atlanta Center
15:05 35.4661 -81.3792 63° Northeast 414 476 17,600 900 Climbing Atlanta Center
15:06 35.5256 -81.2292 64° Northeast 425 489 18,300 840 Climbing Atlanta Center
15:07 35.5850 -81.0944 61° Northeast 431 496 19,300 960 Climbing Atlanta Center
15:08 35.6419 -80.9594 63° Northeast 436 502 20,300 960 Climbing Atlanta Center
15:09 35.6992 -80.8244 62° Northeast 436 502 21,300 960 Climbing Atlanta Center
15:10 35.7558 -80.6864 63° Northeast 441 507 22,300 840 Climbing Atlanta Center
15:11 35.8125 -80.5486 63° Northeast 441 507 23,000 300 Climbing Atlanta Center
15:12 35.8711 -80.4050 63° Northeast 446 513 23,000 540 Level Atlanta Center
15:13 35.9292 -80.2589 64° Northeast 457 526 24,100 600 Climbing Atlanta Center
15:15 36.0600 -79.9522 62° Northeast 452 520 25,000 240 Climbing Washington Center
15:16 36.1378 -79.8150 55° Northeast 469 540 25,000  Level Washington Center
15:17 36.2244 -79.6628 55° Northeast 494 568 25,000  Level Washington Center
15:18 36.2956 -79.5375 55° Northeast 494 568 25,000  Level Washington Center
15:19 36.3728 -79.4047 54° Northeast 494 568 25,000  Level Washington Center
15:20 36.4569 -79.2486 56° Northeast 488 562 25,000  Level Washington Center
15:21 36.5167 -79.1406 55° Northeast 482 555 25,000  Level Washington Center
15:22 36.6022 -78.9942 54° Northeast 476 548 25,000  Level Washington Center
15:23 36.6836 -78.8397 57° Northeast 476 548 25,000  Level Washington Center
15:24 36.7517 -78.7156 56° Northeast 483 556 25,000 -120 Level Washington Center
15:25 36.8261 -78.5811 55° Northeast 483 556 24,800 -900 Descending Washington Center
15:26 36.9006 -78.4411 56° Northeast 448 516 23,200 -1,440 Descending Washington Center
15:27 36.9614 -78.3289 56° Northeast 437 503 22,000 -660 Descending Washington Center
15:28 37.0456 -78.2019 50° Northeast 431 496 22,000  Level Washington Center
15:29 37.1369 -78.1294 32° Northeast 402 463 22,000  Level Washington Center
15:30 37.2322 -78.0569 31° Northeast 402 463 22,000  Level Washington Center
15:31 37.3275 -77.9842 31° Northeast 397 457 22,000  Level Washington Center
15:32 37.4208 -77.9139 31° Northeast 392 451 22,000  Level Washington Center
15:33 37.5119 -77.8408 32° Northeast 392 451 22,000 -900 Level Washington Center
15:34 37.6069 -77.7833 26° Northeast 392 451 20,300 -1,800 Descending Washington Center
15:35 37.6975 -77.7283 26° Northeast 369 425 18,500 -1,560 Descending Washington Center
15:36 37.7839 -77.6781 25° Northeast 356 410 17,200 -1,560 Descending Washington Center
15:37 37.8661 -77.6303 25° Northeast 335 386 15,400 -1,800 Descending Washington Center
15:38 37.9461 -77.5850 24° Northeast 323 372 13,600 -1,800 Descending Washington Center
15:39 38.0219 -77.5397 25° Northeast 308 354 11,800 -1,740 Descending Washington Center
15:40 38.0956 -77.5019 22° Northeast 302 348 10,200 -960 Descending Washington Center
15:41 38.1625 -77.4772 16° North 280 322 10,000 -60 Descending Washington Center
15:42 38.2294 -77.4764 North 251 289 10,100 -60 Climbing Washington Center
15:43 38.2919 -77.4753 North 237 273 9,900 -1,260 Descending Washington Center
15:44 38.3567 -77.4742 North 232 267 7,700 -1,440 Descending Washington Center
15:45 38.4256 -77.4681 North 237 273 7,100 -600 Descending Washington Center
15:46 38.4922 -77.4697 359° North 237 273 6,500 -720 Descending Washington Center
15:47 38.5589 -77.4661 North 237 273 5,800 -1,080 Descending Washington Center
15:48 38.6236 -77.4650 North 231 266 4,400 -1,020 Descending Washington Center
15:49 38.6667 -77.4667 358° North 194 223 4,100 -180 Descending Potomac TRACON
15:50 38.7167 -77.4667 360° North 175 201 4,100 -60 Level Potomac TRACON
15:51 38.7667 -77.4667 360° North 176 203 4,000 -600 Descending Potomac TRACON
15:52 38.8167 -77.4667 360° North 171 197 3,000 -1,080 Descending Potomac TRACON
15:53 38.8667 -77.4667 360° North 174 200 2,000 -900 Descending Potomac TRACON
15:54 38.9000 -77.4667 360° North 134 154 1,200 -840 Descending Potomac TRACON